This is the latest recevied weather packets stored in our database for station/object KQ4LLM. If no packets are shown the sender has not sent any weather packets the latest 10 day(s).
| Time | Temp. | Humidity | Pressure | Rain* | Wind** | Luminosity | Snow |
|---|---|---|---|---|---|---|---|
| 1788208363 | 31.67° C | 56% | - | 0 mm | - | - | - |
| 1788208061 | 32.22° C | 53% | - | 0 mm | - | - | - |
| 1788207757 | 32.22° C | 54% | - | 0 mm | - | - | - |
| 1788207451 | 32.78° C | 52% | - | 0 mm | - | - | - |
| 1788207150 | 32.22° C | 54% | - | 0 mm | - | - | - |
| 1788206846 | 32.78° C | 53% | - | 0 mm | - | - | - |
| 1788206546 | 33.33° C | 50% | - | 0 mm | - | - | - |
| 1788206242 | 33.89° C | 48% | - | 0 mm | - | - | - |
| 1788205938 | 33.33° C | 49% | - | 0 mm | - | - | - |
| 1788205632 | 33.89° C | 49% | - | 0 mm | - | - | - |
| 1788205328 | 33.89° C | 49% | - | 0 mm | - | - | - |
| 1788205021 | 33.89° C | 52% | - | 0 mm | - | - | - |
| 1788204717 | 33.89° C | 51% | - | 0 mm | - | - | - |
| 1788204412 | 33.89° C | 52% | - | 0 mm | - | - | - |
| 1788204107 | 33.33° C | 52% | - | 0 mm | - | - | - |
| 1788203803 | 32.78° C | 51% | - | 0 mm | - | - | - |
| 1788203499 | 32.78° C | 49% | - | 0 mm | - | - | - |
| 1788203193 | 33.33° C | 50% | - | 0 mm | - | - | - |
| 1788202892 | 33.89° C | 50% | - | 0 mm | - | - | - |
| 1788202588 | 32.78° C | 51% | - | 0 mm | - | - | - |
| 1788202284 | 32.78° C | 53% | - | 0 mm | - | - | - |
| 1788201978 | 32.78° C | 53% | - | 0 mm | - | - | - |
| 1788201674 | 32.22° C | 55% | - | 0 mm | - | - | - |
| 1788201373 | 32.22° C | 55% | - | 0 mm | - | - | - |
| 1788201067 | 32.22° C | 55% | - | 0 mm | - | - | - |
* Rain latest hour (hover to see other rain measurements)
** Current wind speed in m/s (hover to see current wind gust speed)